�������l�o���
Date,Time,MP-1(��Sv/h),MP-2(��Sv/h),MP-3(��Sv/h),MP-4(��Sv/h),MP-5(��Sv/h),MP-6(��Sv/h),MP-7(��Sv/h),MP-8(��Sv/h),����,����(m/s),���J
2020/03/21,00:00,0.703,1.012,0.673,1.231,0.885,0.404,0.703,0.665,���쐼,4.1,��
2020/03/21,00:10,0.704,1.017,0.673,1.231,0.885,0.404,0.704,0.666,���쐼,4.4,��
2020/03/21,00:20,0.704,1.014,0.674,1.232,0.884,0.402,0.702,0.666,���쐼,4.6,��
2020/03/21,00:30,0.703,1.012,0.675,1.233,0.885,0.404,0.703,0.667,��,5.5,��
2020/03/21,00:40,0.705,1.014,0.674,1.234,0.885,0.403,0.702,0.666,��,6.3,��
2020/03/21,00:50,0.703,1.011,0.672,1.232,0.884,0.404,0.702,0.666,���쐼,6.6,��
2020/03/21,01:00,0.705,1.011,0.674,1.231,0.884,0.403,0.703,0.667,���쐼,6.6,��
2020/03/21,01:10,0.703,1.013,0.674,1.233,0.886,0.403,0.702,0.664,���쐼,4.9,��
2020/03/21,01:20,0.702,1.015,0.673,1.233,0.884,0.403,0.702,0.668,���쐼,6.1,��
2020/03/21,01:30,0.705,1.014,0.673,1.234,0.884,0.402,0.703,0.666,���쐼,6.9,��
2020/03/21,01:40,0.704,1.012,0.673,1.232,0.884,0.402,0.701,0.666,���쐼,7.8,��
2020/03/21,01:50,0.706,1.012,0.673,1.233,0.888,0.403,0.703,0.665,���쐼,7.2,��
2020/03/21,02:00,0.704,1.014,0.674,1.231,0.884,0.403,0.702,0.664,���쐼,7.2,��
2020/03/21,02:10,0.704,1.014,0.673,1.232,0.885,0.403,0.703,0.666,���쐼,6.8,��
2020/03/21,02:20,0.704,1.014,0.674,1.234,0.887,0.402,0.701,0.666,���쐼,6.5,��
2020/03/21,02:30,0.703,1.014,0.673,1.232,0.884,0.403,0.703,0.665,���쐼,6.9,��
2020/03/21,02:40,0.704,1.012,0.674,1.233,0.886,0.405,0.703,0.665,���쐼,8.4,��
2020/03/21,02:50,0.704,1.012,0.674,1.236,0.887,0.404,0.704,0.667,���쐼,7.3,��
2020/03/21,03:00,0.703,1.014,0.673,1.234,0.886,0.404,0.704,0.666,���쐼,6.6,��
2020/03/21,03:10,0.704,1.011,0.672,1.233,0.886,0.405,0.703,0.666,��,5.3,��
2020/03/21,03:20,0.704,1.013,0.673,1.233,0.885,0.404,0.703,0.666,��,6.1,��
2020/03/21,03:30,0.703,1.013,0.675,1.234,0.885,0.403,0.702,0.667,��,6.9,��
2020/03/21,03:40,0.703,1.014,0.672,1.232,0.884,0.404,0.702,0.666,��,8.0,��
2020/03/21,03:50,0.705,1.013,0.672,1.233,0.886,0.403,0.703,0.666,��,9.8,��
2020/03/21,04:00,0.702,1.012,0.672,1.232,0.885,0.404,0.703,0.668,���쐼,7.5,��
2020/03/21,04:10,0.704,1.012,0.673,1.235,0.883,0.404,0.701,0.665,��,7.0,��
2020/03/21,04:20,0.702,1.011,0.675,1.232,0.887,0.403,0.702,0.665,��,8.4,��
2020/03/21,04:30,0.703,1.012,0.672,1.233,0.886,0.405,0.704,0.666,��,3.9,��
2020/03/21,04:40,0.702,1.012,0.673,1.233,0.885,0.404,0.703,0.667,��,3.1,��
2020/03/21,04:50,0.704,1.011,0.674,1.233,0.882,0.404,0.703,0.665,��,4.1,��
2020/03/21,05:00,0.702,1.011,0.673,1.232,0.884,0.404,0.702,0.665,��,6.1,��
2020/03/21,05:10,0.704,1.015,0.675,1.231,0.886,0.404,0.702,0.665,���쐼,8.3,��
2020/03/21,05:20,0.703,1.013,0.672,1.234,0.883,0.402,0.703,0.666,���쐼,8.9,��
2020/03/21,05:30,0.704,1.012,0.674,1.233,0.884,0.404,0.702,0.665,���쐼,7.5,��
2020/03/21,05:40,0.704,1.014,0.674,1.231,0.886,0.403,0.702,0.667,���쐼,8.1,��
2020/03/21,05:50,0.704,1.012,0.671,1.233,0.885,0.403,0.702,0.664,���쐼,6.5,��
2020/03/21,06:00,0.702,1.013,0.674,1.232,0.885,0.403,0.703,0.667,�쐼,7.4,��
2020/03/21,06:10,0.703,1.014,0.673,1.233,0.886,0.404,0.702,0.667,�쐼,7.5,��
2020/03/21,06:20,0.704,1.011,0.673,1.234,0.885,0.403,0.703,0.666,�쐼,8.1,��
2020/03/21,06:30,0.703,1.012,0.673,1.232,0.885,0.405,0.701,0.666,�쐼,7.5,��
2020/03/21,06:40,0.706,1.012,0.674,1.235,0.885,0.404,0.702,0.667,�쐼,6.8,��
2020/03/21,06:50,0.705,1.013,0.673,1.235,0.884,0.404,0.702,0.666,�쐼,8.5,��
2020/03/21,07:00,0.703,1.014,0.672,1.232,0.884,0.403,0.702,0.666,��쐼,7.7,��
2020/03/21,07:10,0.703,1.014,0.673,1.231,0.887,0.403,0.703,0.666,�쐼,7.5,��
2020/03/21,07:20,0.703,1.013,0.673,1.232,0.886,0.403,0.703,0.667,�쐼,6.8,��
2020/03/21,07:30,0.702,1.014,0.673,1.234,0.883,0.405,0.704,0.667,��쐼,6.2,��
2020/03/21,07:40,0.703,1.013,0.672,1.231,0.884,0.403,0.702,0.666,��쐼,6.1,��
2020/03/21,07:50,0.702,1.012,0.672,1.233,0.885,0.405,0.703,0.666,��쐼,4.6,��
2020/03/21,08:00,0.706,1.016,0.672,1.233,0.884,0.403,0.702,0.665,��쐼,4.3,��
2020/03/21,08:10,0.707,1.014,0.673,1.233,0.885,0.404,0.702,0.666,��쐼,4.6,��
2020/03/21,08:20,0.705,1.015,0.672,1.233,0.885,0.405,0.704,0.667,���쐼,7.5,��
2020/03/21,08:30,0.707,1.013,0.672,1.234,0.885,0.403,0.701,0.668,���쐼,5.8,��
2020/03/21,08:40,0.704,1.014,0.672,1.234,0.886,0.403,0.703,0.667,���쐼,7.8,��
2020/03/21,08:50,0.704,1.013,0.673,1.234,0.885,0.404,0.702,0.668,���쐼,9.2,��
2020/03/21,09:00,0.705,1.014,0.674,1.233,0.886,0.404,0.699,0.666,���쐼,6.7,��
2020/03/21,09:10,0.703,1.014,0.672,1.238,0.887,0.404,0.702,0.667,���쐼,7.9,��
2020/03/21,09:20,0.707,1.012,0.674,1.235,0.885,0.403,0.702,0.663,�쐼,8.4,��
2020/03/21,09:30,0.705,1.012,0.673,1.235,0.886,0.404,0.700,0.666,�쐼,8.8,��
2020/03/21,09:40,0.705,1.012,0.673,1.233,0.886,0.405,0.702,0.667,�쐼,6.7,��
2020/03/21,09:50,0.704,1.012,0.674,1.233,0.886,0.403,0.702,0.666,�쐼,8.1,��
2020/03/21,10:00,0.705,1.014,0.674,1.231,0.886,0.404,0.702,0.664,�쐼,7.0,��
2020/03/21,10:10,0.706,1.013,0.675,1.235,0.886,0.404,0.701,0.666,��쐼,7.1,��
2020/03/21,10:20,0.703,1.014,0.674,1.236,0.885,0.404,0.701,0.664,��,8.2,��
2020/03/21,10:30,0.706,1.014,0.674,1.235,0.886,0.403,0.701,0.665,��,7.3,��
2020/03/21,10:40,0.704,1.013,0.673,1.234,0.885,0.403,0.701,0.665,��,8.2,��
2020/03/21,10:50,0.703,1.013,0.672,1.235,0.885,0.403,0.701,0.664,��쓌,8.3,��
2020/03/21,11:00,0.704,1.014,0.672,1.236,0.885,0.404,0.701,0.663,��쓌,10.5,��
2020/03/21,11:10,0.704,1.017,0.673,1.237,0.884,0.402,0.702,0.664,��쓌,9.8,��
2020/03/21,11:20,0.704,1.015,0.673,1.236,0.885,0.404,0.702,0.664,��쓌,10.6,��
2020/03/21,11:30,0.705,1.016,0.671,1.237,0.885,0.403,0.702,0.663,��,10.0,��
2020/03/21,11:40,0.703,1.018,0.672,1.235,0.887,0.404,0.703,0.663,��쓌,11.9,��
2020/03/21,11:50,0.705,1.017,0.672,1.236,0.885,0.405,0.700,0.665,��쓌,11.7,��
2020/03/21,12:00,0.706,1.016,0.674,1.238,0.886,0.403,0.701,0.663,��쓌,10.0,��
2020/03/21,12:10,0.704,1.018,0.672,1.235,0.887,0.403,0.704,0.665,��쓌,10.5,��
2020/03/21,12:20,0.704,1.016,0.674,1.236,0.887,0.403,0.705,0.663,��쓌,10.2,��
2020/03/21,12:30,0.706,1.018,0.671,1.237,0.889,0.404,0.702,0.664,��쓌,11.1,��
2020/03/21,12:40,0.705,1.018,0.671,1.238,0.887,0.406,0.701,0.665,��,9.8,��
2020/03/21,12:50,0.705,1.019,0.673,1.236,0.888,0.405,0.703,0.664,��,8.5,��
2020/03/21,13:00,0.705,1.019,0.674,1.238,0.888,0.403,0.703,0.665,��,10.7,��
2020/03/21,13:10,0.705,1.017,0.674,1.237,0.888,0.406,0.703,0.664,��쓌,12.0,��
2020/03/21,13:20,0.707,1.021,0.673,1.237,0.889,0.405,0.703,0.666,��쓌,12.0,��
2020/03/21,13:30,0.707,1.018,0.673,1.237,0.888,0.405,0.702,0.666,��쓌,13.8,��
2020/03/21,13:40,0.706,1.018,0.674,1.239,0.887,0.405,0.703,0.664,��쓌,13.3,��
2020/03/21,13:50,0.706,1.020,0.675,1.238,0.888,0.404,0.702,0.666,��쓌,12.2,��
2020/03/21,14:00,0.707,1.019,0.672,1.237,0.888,0.405,0.703,0.665,��쓌,12.1,��
2020/03/21,14:10,0.707,1.018,0.676,1.239,0.889,0.405,0.702,0.663,��쓌,9.4,��
2020/03/21,14:20,0.706,1.020,0.673,1.236,0.889,0.404,0.703,0.665,��쓌,8.2,��
2020/03/21,14:30,0.706,1.018,0.673,1.237,0.888,0.404,0.703,0.665,��쓌,8.8,��
2020/03/21,14:40,0.706,1.020,0.673,1.238,0.888,0.406,0.702,0.666,��쓌,5.4,��
2020/03/21,14:50,0.708,1.022,0.675,1.239,0.889,0.405,0.704,0.665,�쐼,1.5,��
2020/03/21,15:00,0.709,1.020,0.675,1.240,0.888,0.405,0.703,0.665,��,7.0,��
2020/03/21,15:10,0.708,1.018,0.673,1.241,0.890,0.405,0.705,0.666,���쐼,8.8,��
2020/03/21,15:20,0.709,1.021,0.675,1.239,0.890,0.404,0.704,0.665,��,9.4,��
2020/03/21,15:30,0.710,1.020,0.676,1.239,0.888,0.405,0.707,0.666,��,9.4,��
2020/03/21,15:40,0.709,1.019,0.674,1.241,0.890,0.405,0.704,0.664,��,11.0,��
2020/03/21,15:50,0.707,1.019,0.676,1.240,0.889,0.405,0.703,0.665,��,10.8,��
2020/03/21,16:00,0.709,1.020,0.674,1.237,0.890,0.405,0.705,0.666,��,10.7,��
2020/03/21,16:10,0.708,1.019,0.676,1.238,0.890,0.404,0.704,0.666,��,13.3,��
2020/03/21,16:20,0.708,1.017,0.675,1.238,0.890,0.404,0.704,0.665,��,10.3,��
2020/03/21,16:30,0.707,1.020,0.674,1.236,0.890,0.406,0.704,0.667,��,12.2,��
2020/03/21,16:40,0.708,1.020,0.674,1.237,0.891,0.406,0.705,0.666,��,10.5,��
2020/03/21,16:50,0.709,1.017,0.676,1.239,0.889,0.407,0.704,0.668,��,11.1,��
2020/03/21,17:00,0.708,1.018,0.673,1.238,0.889,0.406,0.704,0.664,��,9.0,��
2020/03/21,17:10,0.707,1.019,0.674,1.239,0.890,0.405,0.703,0.666,��,10.2,��
2020/03/21,17:20,0.708,1.020,0.674,1.240,0.887,0.406,0.703,0.665,��,8.8,��
2020/03/21,17:30,0.707,1.021,0.674,1.238,0.891,0.407,0.703,0.665,��,10.0,��
2020/03/21,17:40,0.707,1.019,0.675,1.240,0.889,0.407,0.703,0.665,��,8.1,��
2020/03/21,17:50,0.709,1.022,0.675,1.241,0.888,0.406,0.701,0.668,��,9.6,��
2020/03/21,18:00,0.708,1.022,0.674,1.242,0.889,0.404,0.703,0.668,��,7.5,��
2020/03/21,18:10,0.710,1.024,0.676,1.243,0.890,0.405,0.704,0.668,��,5.8,��
2020/03/21,18:20,0.709,1.023,0.677,1.241,0.888,0.406,0.704,0.668,��,4.3,��
2020/03/21,18:30,0.709,1.022,0.677,1.240,0.893,0.404,0.703,0.668,���쐼,4.0,��
2020/03/21,18:40,0.708,1.019,0.678,1.240,0.893,0.407,0.703,0.669,�쐼,1.9,��
2020/03/21,18:50,0.709,1.022,0.678,1.242,0.892,0.406,0.703,0.668,�쐼,2.9,��
2020/03/21,19:00,0.707,1.022,0.677,1.240,0.891,0.407,0.705,0.668,��,3.3,��
2020/03/21,19:10,0.709,1.020,0.676,1.239,0.891,0.405,0.705,0.667,���쐼,2.3,��
2020/03/21,19:20,0.709,1.023,0.676,1.240,0.890,0.406,0.705,0.667,��,2.9,��
2020/03/21,19:30,0.708,1.021,0.677,1.240,0.890,0.404,0.703,0.668,���쐼,4.0,��
2020/03/21,19:40,0.706,1.020,0.676,1.242,0.891,0.406,0.704,0.667,�쐼,2.6,��
2020/03/21,19:50,0.709,1.020,0.676,1.242,0.891,0.405,0.705,0.667,�쐼,2.8,��
2020/03/21,20:00,0.707,1.021,0.676,1.242,0.892,0.403,0.705,0.668,�쐼,4.1,��
2020/03/21,20:10,0.708,1.020,0.674,1.240,0.890,0.406,0.704,0.668,�쐼,4.4,��
2020/03/21,20:20,0.707,1.022,0.675,1.238,0.891,0.405,0.705,0.667,���쐼,3.3,��
2020/03/21,20:30,0.709,1.021,0.676,1.239,0.893,0.403,0.704,0.670,���쐼,1.2,��
2020/03/21,20:40,0.706,1.020,0.678,1.240,0.890,0.405,0.706,0.668,�쐼,1.7,��
2020/03/21,20:50,0.708,1.019,0.678,1.239,0.891,0.403,0.703,0.667,���쐼,1.5,��
2020/03/21,21:00,0.708,1.020,0.676,1.239,0.892,0.405,0.705,0.666,��,2.8,��
2020/03/21,21:10,0.707,1.021,0.677,1.241,0.892,0.404,0.706,0.667,��,2.3,��
2020/03/21,21:20,0.710,1.019,0.675,1.240,0.891,0.405,0.705,0.667,�쓌,2.0,��
2020/03/21,21:30,0.706,1.019,0.678,1.242,0.891,0.403,0.706,0.668,�쐼,3.3,��
2020/03/21,21:40,0.708,1.020,0.676,1.241,0.890,0.406,0.704,0.667,���k��,2.2,��
2020/03/21,21:50,0.708,1.021,0.677,1.240,0.889,0.405,0.705,0.668,��,1.5,��
2020/03/21,22:00,0.706,1.021,0.675,1.241,0.891,0.405,0.705,0.668,�k,0.9,��
2020/03/21,22:10,0.707,1.020,0.678,1.240,0.888,0.406,0.705,0.666,�k��,2.3,��
2020/03/21,22:20,0.707,1.019,0.677,1.242,0.891,0.405,0.706,0.668,�k�k��,4.5,��
2020/03/21,22:30,0.707,1.021,0.677,1.239,0.890,0.405,0.705,0.668,�k�k��,4.1,��
2020/03/21,22:40,0.707,1.016,0.676,1.239,0.891,0.405,0.707,0.666,�k�k��,2.9,��
2020/03/21,22:50,0.707,1.017,0.677,1.241,0.891,0.405,0.705,0.668,�k�k��,3.0,��
2020/03/21,23:00,0.708,1.018,0.675,1.239,0.891,0.403,0.705,0.668,���k��,2.6,��
2020/03/21,23:10,0.707,1.019,0.675,1.241,0.890,0.403,0.704,0.667,��,3.1,��
2020/03/21,23:20,0.709,1.019,0.675,1.239,0.890,0.403,0.706,0.667,���쐼,3.7,��
2020/03/21,23:30,0.707,1.019,0.678,1.240,0.890,0.404,0.704,0.667,�쐼,4.0,��
2020/03/21,23:40,0.710,1.017,0.677,1.241,0.891,0.402,0.704,0.665,��쐼,3.6,��
2020/03/21,23:50,0.709,1.018,0.677,1.240,0.890,0.404,0.704,0.668,��,3.9,��
